Theta_e
316 316 318 317 317 304 311 311 306 309 316 312 308 307 308 307 305 303 313 310 311 317 318 321 324 328 327 327 329 331 333 333 337 337 337 338 338 340 340 342 342 347 347 348 347 349 348 348 349 350 351 352 355 357 359 360 363 366 364 367 363 363 363
316 317 317 317 316 315 312 306 310 315 316 314 310 302 306 303 299 305 309 306 307 308 304 320 325 325 326 328 327 330 335 334 335 337 340 340 339 339 341 342 344 348 348 347 346 347 347 348 349 350 353 353 356 360 361 361 364 365 366 366 362 359 360
314 314 315 313 315 316 312 311 317 308 304 303 309 306 299 299 299 301 305 307 307 309 310 313 315 316 321 329 332 332 333 334 334 336 339 339 340 340 341 340 343 346 346 346 347 346 346 348 349 349 352 354 359 361 362 364 364 366 366 366 364 361 359
313 314 313 307 310 314 315 316 312 315 312 308 306 306 307 306 300 300 302 306 304 310 312 313 313 317 321 327 332 332 333 335 333 336 337 338 340 341 341 340 342 344 345 346 346 348 346 348 348 348 350 354 355 360 365 366 366 367 367 365 362 360 360
313 307 311 309 311 308 309 309 309 311 310 314 312 311 307 304 302 302 302 301 306 314 317 316 316 321 326 327 332 336 335 335 334 338 339 343 343 344 344 340 342 343 345 344 346 348 349 350 350 351 351 354 350 362 365 365 362 363 363 363 362 362 361
307 310 315 314 314 314 312 310 308 310 308 306 302 302 310 308 305 303 301 301 309 314 319 323 322 328 330 332 334 335 336 335 336 340 342 347 349 348 343 341 341 342 345 344 346 349 351 350 352 353 353 354 352 362 362 362 362 363 361 359 361 361 360
309 312 315 317 315 314 314 313 311 313 312 311 306 298 305 308 307 309 307 303 307 321 326 326 326 331 332 335 334 336 337 337 338 342 346 351 352 347 344 343 343 344 345 346 348 352 352 349 352 353 353 355 356 360 359 360 360 360 359 361 363 360 354
313 315 314 316 314 313 311 312 313 312 310 311 309 308 310 307 308 305 305 303 308 318 334 330 329 333 333 336 336 338 337 339 342 344 347 353 354 353 350 348 345 348 351 350 355 354 353 352 355 356 358 360 356 357 357 359 359 360 360 360 358 356 353
307 308 312 310 314 313 311 310 312 313 313 313 313 312 313 307 307 307 304 300 305 324 330 331 332 330 331 331 335 339 336 338 339 345 352 354 354 354 351 352 354 356 353 351 356 356 356 358 359 360 362 361 358 357 357 358 360 359 359 359 357 357 353
297 297 299 302 305 308 311 312 312 313 312 312 311 306 308 302 310 310 305 305 311 320 326 327 327 327 332 336 334 337 338 340 340 344 350 352 351 353 352 352 354 354 355 356 358 358 359 360 359 361 363 361 359 358 359 361 361 360 359 361 360 357 355
304 307 310 312 313 312 308 310 311 312 312 313 313 311 307 304 313 310 311 310 310 312 315 318 320 326 323 328 333 335 337 339 344 348 350 350 351 352 352 353 354 356 356 356 358 360 359 358 359 359 359 358 358 359 361 362 363 363 363 363 361 360 358
309 311 311 313 313 310 311 310 310 311 311 312 311 308 306 314 311 304 312 317 311 312 313 315 318 320 322 324 332 335 341 342 343 345 349 346 350 351 352 352 353 353 354 356 357 358 358 357 359 358 355 357 360 361 360 361 364 363 360 359 360 359 359
309 311 312 313 312 312 312 311 311 310 311 312 310 310 312 314 308 305 314 322 313 314 314 316 320 329 327 328 336 343 345 345 346 346 345 345 346 348 347 349 351 351 352 355 355 355 357 357 357 358 359 360 360 359 359 360 361 361 361 359 358 358 358
309 310 311 312 311 312 311 312 312 312 312 312 312 312 314 314 314 316 316 319 314 316 317 320 326 329 328 330 339 342 340 339 344 344 345 344 346 346 346 348 349 351 353 355 355 355 356 355 356 356 357 358 357 355 354 356 358 360 361 361 359 358 357
307 309 311 311 311 311 310 311 312 312 312 312 313 314 315 317 315 313 312 314 316 323 328 328 332 335 333 336 336 336 340 340 342 342 343 345 347 346 346 349 350 352 353 353 354 354 353 354 354 355 354 353 353 355 356 359 360 360 360 357 357 357 357
305 309 309 309 310 310 310 310 311 311 311 310 312 311 316 312 312 313 313 313 313 330 331 330 335 332 335 335 336 337 339 339 342 341 344 345 344 345 347 350 351 350 350 350 350 350 352 351 350 351 355 358 356 354 356 355 355 355 353 353 352 353 353
305 309 309 308 308 308 306 308 310 312 312 313 313 321 318 315 315 314 311 312 324 327 331 327 330 328 332 337 335 336 340 341 340 342 341 341 341 345 348 348 348 348 349 350 349 348 348 354 357 352 351 350 349 351 350 351 352 350 351 350 350 349 350
305 309 309 309 305 299 302 319 319 315 312 316 313 312 314 320 316 316 320 321 325 326 328 327 329 332 332 335 338 337 341 341 339 340 341 342 342 343 345 346 347 347 346 346 349 352 350 347 347 347 349 348 349 349 350 350 350 349 348 349 350 350 350
305 310 309 304 298 300 321 322 323 321 324 324 319 326 321 320 319 319 318 321 325 330 331 331 333 333 333 335 338 339 339 342 341 340 342 341 340 341 342 342 344 346 349 350 347 347 346 345 348 350 350 349 348 350 350 348 350 349 349 349 348 349 349
310 308 306 297 300 315 319 321 320 324 323 324 319 319 320 321 321 322 321 326 331 333 331 331 334 333 333 334 337 339 340 342 339 338 338 340 342 342 343 344 346 345 344 344 345 346 346 346 347 346 346 346 347 347 349 350 350 351 350 349 349 349 349
305 306 304 304 314 311 316 315 318 316 318 317 315 310 317 322 325 324 324 329 331 330 331 331 331 333 333 332 330 333 336 338 339 339 339 340 341 340 341 341 340 343 344 345 344 347 345 346 345 345 347 347 347 346 346 347 347 347 346 346 346 346 346
310 305 303 304 304 302 311 318 325 327 331 325 325 319 318 323 325 327 327 329 329 331 331 330 331 333 326 320 327 331 333 334 333 335 335 337 337 337 337 341 342 344 344 345 342 340 340 346 346 348 348 348 347 345 344 345 346 345 345 344 345 344 343
308 308 303 303 302 306 314 322 326 328 328 325 325 314 310 321 326 327 327 329 330 330 329 330 332 325 316 318 328 330 330 331 331 330 331 332 335 337 340 340 342 343 344 342 339 343 344 343 344 346 346 344 343 343 344 345 344 343 342 342 342 341 341
309 307 304 303 308 309 319 324 325 324 330 324 319 304 306 320 326 328 328 330 330 330 332 332 329 321 316 319 326 329 330 330 331 332 331 333 336 338 338 340 343 343 343 342 340 341 343 345 345 344 344 341 343 342 342 343 341 340 340 340 341 342 342
307 307 307 308 311 317 323 322 324 326 326 322 308 302 314 327 327 328 329 331 333 335 333 331 323 329 333 332 332 332 332 331 332 333 335 336 338 339 341 339 342 341 340 338 335 336 342 344 344 344 343 343 341 341 340 339 338 338 340 340 340 340 340
307 308 305 306 310 322 323 324 323 325 319 308 306 324 332 329 330 331 329 329 333 335 336 330 329 332 331 335 332 333 332 332 335 334 335 337 339 341 341 341 340 339 337 338 339 338 341 342 343 342 341 340 339 338 337 336 337 338 339 340 340 339 339
312 310 306 304 297 316 325 323 321 323 318 316 325 331 331 328 328 328 331 331 332 335 333 333 332 329 329 330 330 331 333 333 333 334 336 339 340 340 340 339 340 337 338 338 339 342 341 341 342 340 339 337 336 335 333 335 336 337 337 337 338 337 337
308 305 303 303 318 321 324 321 316 320 325 329 332 326 327 331 328 328 330 333 334 333 334 331 331 330 331 331 332 332 333 333 335 337 338 339 339 338 337 336 338 339 339 340 341 341 341 342 340 339 337 334 333 332 333 335 336 336 336 336 335 335 334
311 313 315 320 325 325 325 324 326 330 330 331 331 328 328 328 328 331 328 330 333 333 334 333 334 331 331 331 331 331 332 333 334 335 336 337 338 338 338 340 341 341 339 339 339 339 339 338 338 338 337 333 332 331 332 334 334 334 333 333 332 332 331
321 321 321 323 324 324 326 327 327 329 327 327 328 327 326 329 331 329 328 329 332 334 337 332 331 330 330 331 330 331 332 333 336 337 335 336 339 339 340 342 340 340 340 338 337 336 336 336 335 336 335 333 330 331 333 333 333 332 331 330 330 330 330
312 306 326 321 324 326 326 326 327 329 329 335 330 330 331 330 330 328 331 333 335 336 336 333 333 333 334 333 334 335 334 334 334 334 336 337 337 338 338 339 339 338 337 335 334 334 333 334 333 333 332 331 332 333 332 331 329 330 330 329 328 328 328
313 314 326 325 324 326 327 327 325 325 329 332 333 335 336 340 338 334 336 336 335 335 331 333 333 331 331 332 332 331 332 333 335 336 337 338 339 340 339 338 336 335 334 332 332 331 330 331 331 331 330 331 331 330 329 329 328 327 327 327 326 326 326
318 320 323 323 324 324 327 328 331 331 330 333 334 335 335 334 335 336 335 333 333 333 332 333 332 330 330 331 331 330 334 334 335 338 339 338 339 338 337 336 334 333 331 330 330 329 329 330 330 330 330 329 329 328 327 327 328 326 325 325 326 326 326
313 313 319 322 316 317 322 323 326 329 333 336 334 334 333 334 336 336 334 334 336 337 336 335 332 330 331 332 333 331 333 336 338 339 338 338 337 336 335 335 334 332 331 330 329 328 328 329 329 329 328 328 328 327 327 327 326 325 325 325 325 325 325
312 319 322 330 327 325 326 325 328 328 331 333 332 332 331 336 338 337 336 335 335 335 334 335 333 333 333 334 334 334 334 338 339 339 337 336 335 334 333 331 331 330 329 329 329 328 328 328 328 328 327 327 327 327 327 327 326 325 325 324 324 324 325
321 324 323 326 327 323 325 328 331 331 332 332 329 332 332 334 337 337 335 336 335 335 335 335 335 335 334 333 333 335 337 337 337 336 336 334 333 332 332 330 329 328 327 327 327 327 327 327 327 327 325 325 325 326 327 327 327 325 324 323 322 324 325
323 329 331 333 331 329 329 331 332 332 334 329 327 329 333 334 335 337 336 336 336 334 333 334 336 335 335 335 337 337 337 337 336 333 332 331 329 330 329 329 328 327 327 327 326 326 326 326 326 326 324 324 326 327 327 326 326 324 324 323 323 324 324
Wind_Speed
12 14 12 12 8 10 8 8 9 9 4 5 5 4 2 5 6 9 5 7 8 5 9 11 9 6 8 9 8 9 8 10 10 11 14 15 14 14 13 13 13 13 13 13 11 12 11 11 10 10 10 10 10 9 9 9 8 8 8 8 8 7 7
11 1 7 7 12 7 3 9 8 4 1 7 5 7 5 8 8 3 4 7 8 5 4 5 4 7 7 8 9 9 10 11 12 11 13 15 15 14 14 14 13 13 13 14 13 12 12 11 11 11 10 9 9 8 9 9 9 9 8 8 8 8 8
11 6 6 7 7 7 11 7 8 9 9 11 8 6 8 8 8 7 8 7 8 6 6 4 8 7 4 7 6 7 10 12 12 12 15 16 15 14 13 14 13 13 13 13 13 13 12 11 10 10 10 9 7 8 8 8 8 8 8 7 7 6 7
11 11 10 13 11 10 9 5 9 4 6 7 7 8 8 5 8 6 6 5 7 3 6 7 8 2 4 2 7 7 9 11 11 11 14 16 15 14 14 14 14 14 14 14 14 12 12 11 11 9 10 10 11 8 8 7 7 7 8 8 7 7 7
11 12 11 14 11 11 11 11 10 7 8 3 7 1 8 7 8 7 6 7 4 3 1 5 4 1 0 2 4 5 7 10 11 11 13 13 14 14 14 14 13 14 14 14 14 13 10 10 9 8 8 9 9 8 8 8 9 9 9 8 8 7 6
13 13 12 17 16 10 11 13 12 11 11 9 10 10 6 9 7 8 7 7 5 4 2 1 2 2 1 0 2 5 8 10 11 10 12 13 12 14 15 14 13 13 13 13 12 11 10 10 9 9 8 7 8 7 7 7 8 8 9 8 7 7 6
11 16 6 4 2 2 8 7 10 13 12 10 9 8 8 7 9 6 7 8 3 6 3 0 1 1 1 1 3 4 6 8 10 10 11 11 12 14 14 14 12 12 12 12 11 11 11 11 9 9 8 8 8 8 8 8 8 9 8 7 7 6 7
13 9 5 4 3 4 8 10 11 10 12 13 11 11 7 7 4 6 5 8 5 5 4 2 2 3 3 3 3 4 7 7 8 9 9 9 8 9 9 10 8 9 10 10 10 10 10 9 9 9 8 8 8 8 8 8 9 9 8 6 6 7 7
7 10 7 6 5 6 9 10 12 15 14 13 10 7 1 9 8 11 8 9 6 6 4 3 3 5 5 5 4 5 6 7 8 7 5 4 5 5 7 8 7 8 9 10 9 9 9 9 9 9 8 8 7 8 8 8 8 8 7 6 7 7 8
15 16 14 13 11 12 10 14 15 16 18 15 9 12 8 9 7 11 10 8 3 7 3 4 5 5 5 4 4 5 5 4 5 5 5 5 4 5 6 6 7 8 7 7 7 8 8 8 8 8 8 8 8 8 8 7 7 7 7 6 7 8 8
12 12 10 10 8 9 14 13 14 15 17 17 14 12 9 11 5 8 7 9 8 5 8 6 6 6 7 6 7 5 5 5 3 3 4 5 5 5 6 6 5 6 6 6 7 7 7 8 8 7 8 8 7 7 7 7 5 5 5 6 6 7 8
15 14 14 4 8 12 13 16 18 18 17 17 18 14 11 5 6 10 6 5 9 6 8 4 7 8 7 5 4 4 4 4 4 4 4 5 5 5 4 5 5 6 5 6 7 7 7 7 6 6 6 6 6 6 6 5 5 5 4 6 7 8 8
19 15 5 2 8 10 12 15 15 18 17 17 17 16 13 9 11 11 3 8 9 8 7 6 2 4 3 3 1 1 2 3 4 4 5 5 6 6 5 4 4 5 6 6 6 7 7 6 6 6 5 4 3 3 3 4 4 6 6 7 7 8 8
16 16 11 4 9 9 11 13 15 15 17 17 18 14 7 12 6 3 4 4 6 5 5 4 5 3 3 2 2 2 3 4 4 5 5 5 5 6 5 5 5 5 5 6 6 7 6 6 6 5 4 3 3 4 5 6 7 6 6 6 7 7 7
14 15 13 9 9 8 11 10 7 11 13 13 10 7 5 4 5 3 3 3 6 2 4 4 4 3 2 1 0 0 1 3 4 4 5 5 5 5 5 5 5 5 5 5 5 5 5 5 4 2 3 4 5 5 4 4 4 3 3 4 5 5 6
11 12 13 14 13 11 12 12 11 10 11 13 10 10 6 9 6 6 5 5 7 5 3 3 2 1 2 2 1 2 2 3 3 3 4 5 5 5 6 6 5 5 5 5 4 4 3 3 3 3 2 1 1 2 2 1 1 1 2 3 4 5 5
10 11 12 14 13 12 13 14 14 12 12 10 9 4 6 5 2 6 7 5 6 4 3 1 2 1 4 2 3 3 4 3 3 3 4 5 5 7 6 6 5 4 4 4 4 3 2 2 2 2 1 0 0 2 2 2 1 2 2 3 4 5 6
10 10 12 12 12 14 11 2 3 8 12 10 10 9 8 6 7 2 3 4 3 3 1 0 3 4 4 3 3 3 3 3 4 4 5 5 7 7 5 5 5 5 3 3 3 4 4 4 3 3 3 3 3 2 1 1 1 2 3 4 5 6 7
9 8 10 12 16 13 5 2 4 6 6 3 4 5 2 6 6 3 3 1 1 3 3 4 4 5 5 5 7 4 4 3 4 5 6 5 5 6 6 5 5 4 3 4 4 5 5 4 4 3 4 2 1 1 1 2 2 3 4 6 7 7 8
5 9 10 13 12 6 5 5 4 5 4 4 5 4 4 5 6 6 5 2 4 4 4 5 4 6 8 8 6 4 4 2 4 6 6 7 6 5 4 5 5 5 5 5 5 5 4 4 4 3 2 1 2 3 3 4 4 4 5 6 7 7 8
9 9 12 12 6 4 6 5 6 8 7 9 9 8 9 9 6 7 5 5 5 5 5 6 6 6 7 7 6 5 5 4 5 5 7 7 6 7 7 8 8 7 6 6 5 5 4 3 3 2 2 2 3 4 5 5 5 6 7 8 8 9 9
10 12 12 11 9 12 9 3 6 7 2 4 3 6 4 5 8 7 6 7 8 7 6 6 6 5 3 4 5 6 6 5 6 7 9 9 8 8 9 8 8 7 6 5 5 3 3 4 4 2 2 3 4 5 6 7 7 7 8 8 8 9 10
10 9 12 11 11 8 4 12 10 8 4 5 5 7 7 8 9 8 7 7 8 7 8 8 6 4 5 3 7 7 7 7 7 7 8 8 8 8 7 7 7 7 5 4 2 4 3 4 4 4 4 5 6 7 7 7 8 8 9 9 10 11 12
8 11 11 12 9 3 5 9 10 9 5 6 6 7 5 12 11 10 8 8 8 7 7 7 4 4 5 2 7 8 8 7 6 6 6 7 8 8 7 8 7 5 4 2 2 4 4 5 5 6 6 6 7 7 8 8 9 10 10 11 12 12 12
11 13 10 8 4 5 4 7 10 8 5 5 8 7 4 9 9 9 8 7 8 8 7 6 4 1 5 6 8 8 8 7 7 7 7 7 7 7 6 6 4 3 3 4 5 5 4 5 6 6 6 6 7 8 9 9 10 10 11 12 12 12 12
12 7 9 8 1 5 5 6 9 7 8 8 6 4 0 7 8 8 7 8 8 8 7 5 1 5 5 7 8 9 8 7 7 6 6 7 8 7 7 6 4 4 4 4 4 5 5 6 6 6 7 7 8 9 9 11 12 12 12 12 12 13 13
3 5 8 5 5 3 6 11 6 2 5 3 3 5 4 6 8 9 6 6 7 6 6 5 5 5 6 6 7 8 7 7 6 6 6 6 6 6 4 4 6 5 4 4 5 6 6 7 6 7 8 9 10 10 11 13 12 13 12 12 13 14 14
5 9 10 4 2 4 11 10 3 7 1 3 2 5 5 3 7 7 7 5 6 6 6 6 5 6 7 6 7 7 7 6 6 6 6 6 6 5 3 4 5 4 3 4 5 6 6 6 6 7 8 10 11 12 13 12 11 12 12 13 13 14 14
5 4 5 6 2 3 11 4 7 3 3 2 2 2 6 6 6 6 5 7 7 7 6 7 7 6 6 6 7 7 7 7 6 6 5 5 5 4 3 4 5 4 4 5 6 6 6 7 7 8 9 10 12 13 12 11 12 12 13 13 14 14 14
1 4 1 2 2 4 7 3 4 3 3 2 1 4 4 4 5 5 4 7 7 7 6 7 6 5 6 6 6 6 7 6 7 6 5 5 4 3 3 3 4 4 4 5 6 7 7 8 8 8 9 10 12 12 12 11 12 12 13 13 14 15 14
7 4 8 8 6 7 8 3 2 2 3 3 2 3 3 4 4 5 3 4 7 7 7 6 5 6 5 6 6 6 6 5 5 4 4 4 3 3 3 4 4 4 5 5 6 8 9 8 8 9 11 11 11 11 11 12 13 13 13 13 14 14 14
9 3 4 3 5 7 9 7 5 5 4 2 2 4 4 5 3 2 5 5 6 6 6 5 5 6 7 7 7 6 6 5 5 4 4 3 3 4 3 3 4 4 5 6 8 9 9 9 10 10 11 11 12 12 13 14 13 13 13 13 14 14 15
3 5 4 5 5 5 6 5 2 3 5 6 5 4 4 3 4 4 4 1 5 5 4 6 5 6 6 6 6 5 6 5 4 4 4 3 3 2 2 3 3 4 6 7 9 10 11 10 10 11 12 12 12 13 13 13 12 12 13 14 14 15 14
7 3 5 9 6 5 7 10 7 5 3 4 6 5 4 3 4 5 6 6 5 5 5 5 5 6 6 6 3 5 5 5 5 5 4 3 2 2 3 3 4 5 6 8 9 10 10 10 11 11 12 12 12 12 12 12 12 12 14 14 14 13 12
1 5 5 5 4 6 2 5 8 6 5 4 5 4 5 5 5 6 7 8 7 7 6 4 4 7 7 7 6 6 6 6 5 5 3 2 1 2 3 4 5 7 8 9 9 10 10 10 9 10 11 12 12 12 12 12 12 13 13 13 13 12 12
5 8 9 6 6 7 5 4 3 4 4 3 3 2 2 4 5 5 6 7 9 8 7 6 5 6 7 6 5 7 7 6 6 4 3 2 2 2 3 4 6 8 9 9 9 9 9 9 10 11 13 13 12 12 11 11 11 12 13 12 12 11 12
1 6 6 8 6 7 6 5 4 4 3 2 1 3 4 5 5 5 6 7 8 9 8 7 7 6 7 6 6 7 7 6 5 4 3 3 3 3 4 5 6 7 6 7 7 9 9 10 11 13 13 12 11 11 12 11 11 12 12 12 12 13 12
Wind_Direction
192 209 196 208 218 235 156 202 216 231 333 263 242 225 235 266 238 251 163 236 232 235 220 219 209 217 222 212 209 199 189 188 181 192 188 184 185 185 186 183 186 181 180 184 186 188 188 188 186 193 194 190 192 187 191 195 196 200 204 200 206 208 203
199 164 178 204 197 260 126 222 211 94 248 305 276 254 163 244 248 217 208 249 256 225 236 129 168 219 198 199 204 191 175 179 180 184 185 184 187 185 186 186 182 182 183 184 187 188 190 188 186 190 190 198 182 189 190 190 191 195 193 193 202 201 198
160 161 189 198 213 221 252 326 51 216 183 213 197 264 238 237 234 254 214 234 266 267 261 200 203 243 180 173 177 188 176 181 184 182 186 183 188 185 185 188 182 184 184 186 188 190 190 186 193 190 186 196 177 188 189 193 196 192 188 188 196 207 196
147 180 196 222 193 196 240 272 240 240 293 255 203 214 261 266 266 253 232 220 273 233 253 265 274 261 289 154 172 198 191 183 184 181 181 181 186 186 186 189 187 187 184 188 186 190 191 185 190 195 188 185 193 185 181 187 190 182 181 184 187 197 204
159 204 195 223 215 192 198 212 230 214 235 359 310 216 243 245 260 256 273 256 224 279 36 289 293 359 124 240 184 185 198 186 183 177 181 177 184 182 187 192 189 187 185 189 185 189 187 187 186 197 190 192 198 174 181 184 188 179 184 186 188 198 202
207 219 193 222 234 232 213 206 220 220 213 204 220 229 191 249 242 255 257 257 278 94 80 1 308 70 46 37 229 185 194 190 180 171 182 175 182 188 192 196 190 188 185 188 182 184 177 184 177 180 185 193 191 174 182 182 183 182 189 189 195 197 202
205 216 140 130 95 300 283 271 234 213 223 228 223 249 202 214 233 290 276 297 270 65 68 83 175 175 230 280 210 183 184 187 177 172 176 178 185 191 194 196 190 187 180 187 174 179 177 183 180 180 182 180 181 176 179 181 186 190 197 196 196 201 207
215 142 132 133 174 218 233 229 250 258 233 220 234 234 231 230 163 230 223 251 270 131 124 176 171 204 207 213 223 196 178 191 182 182 176 174 174 183 192 192 182 168 167 171 155 165 172 176 172 173 166 171 179 179 184 187 196 196 198 200 203 207 211
232 223 178 192 153 216 236 235 214 227 243 241 251 290 337 246 222 249 254 258 272 102 143 165 202 213 210 205 190 214 196 188 189 177 162 152 158 161 175 156 150 156 164 168 164 169 171 168 165 165 164 173 179 182 189 195 202 202 204 207 209 212 217
208 210 203 210 202 217 224 234 226 210 223 226 216 229 213 245 215 224 253 268 299 135 163 190 214 216 210 227 208 190 215 201 189 175 163 157 158 166 180 169 168 173 169 161 159 164 166 168 169 167 169 173 180 190 197 200 205 203 209 213 215 219 224
228 228 230 215 233 211 219 203 211 201 212 219 224 237 229 237 193 223 239 261 272 208 182 197 222 232 238 211 213 202 196 186 173 154 151 158 162 173 183 182 176 166 164 166 161 161 167 171 170 173 174 178 189 198 204 203 211 216 215 221 220 226 229
252 256 234 171 207 239 221 212 206 209 207 212 217 225 235 219 248 252 228 229 269 246 254 234 234 233 237 247 237 204 176 169 183 165 142 135 152 158 165 171 171 172 165 160 161 162 165 168 170 176 180 182 192 202 210 212 214 220 225 225 228 230 232
237 250 342 194 217 239 249 225 207 201 198 203 215 221 231 208 237 265 213 175 230 264 270 270 48 34 313 300 252 104 87 131 146 152 164 171 168 163 165 165 171 168 163 160 162 166 170 170 172 174 174 177 193 206 223 235 236 240 238 237 238 241 244
231 229 234 237 233 224 240 247 208 199 197 200 212 217 205 221 239 114 126 182 243 265 315 14 36 22 355 21 70 152 198 193 170 174 169 166 161 158 152 153 160 161 159 159 164 167 169 176 176 180 188 203 217 235 244 245 245 245 241 241 248 253 256
230 222 219 221 226 232 236 229 222 204 200 204 212 202 165 187 177 207 145 181 246 116 33 14 23 8 33 67 157 203 136 180 175 181 166 154 149 137 130 142 148 141 142 151 161 168 171 178 181 177 223 233 234 240 250 256 254 250 250 263 264 266 265
227 210 214 216 224 233 242 215 203 194 193 198 187 212 180 207 207 202 221 240 254 104 51 76 62 70 30 49 69 141 144 169 147 159 144 133 135 140 135 133 136 146 159 159 162 164 163 187 216 232 236 254 278 258 245 245 341 345 283 260 259 260 262
227 201 208 209 211 226 233 225 202 198 206 223 188 135 176 225 224 204 222 266 61 60 37 293 99 49 91 79 57 70 89 89 117 128 132 141 142 125 135 139 149 153 155 157 157 180 187 79 69 65 40 208 127 42 24 27 348 249 251 260 268 266 263
213 172 199 198 210 218 221 102 79 207 210 186 195 195 192 177 215 296 5 43 66 77 135 82 66 74 66 59 82 32 37 103 119 129 114 106 114 120 129 139 144 148 152 156 112 77 79 87 87 91 72 56 48 43 31 226 258 265 276 273 268 270 270
204 167 181 203 217 222 82 79 75 70 73 144 199 79 155 164 199 218 221 210 121 82 66 77 79 82 90 72 79 77 74 78 103 114 111 115 110 112 130 138 143 126 108 91 98 96 85 79 75 83 85 64 48 209 262 292 272 273 271 277 275 278 279
182 193 198 216 214 90 108 91 102 90 101 119 161 193 197 199 199 191 205 140 110 134 126 107 109 107 100 93 86 90 93 70 110 125 123 125 125 120 106 111 97 102 95 88 81 81 85 84 91 76 67 19 328 317 300 289 290 285 288 287 288 288 287
205 213 210 220 83 142 139 132 180 180 178 179 200 231 184 180 178 183 180 145 144 132 121 125 128 138 138 111 92 91 108 108 90 98 111 115 111 101 102 95 97 83 84 85 92 109 97 94 84 60 23 355 328 315 310 312 310 305 300 297 295 295 293
222 217 212 219 222 229 180 177 149 169 128 182 163 262 129 158 171 187 174 169 148 138 136 137 141 173 200 215 123 121 120 121 108 98 99 104 102 98 91 91 87 90 91 109 100 51 87 104 70 46 2 340 323 317 320 317 312 308 302 298 299 296 295
206 215 223 216 224 232 234 161 150 139 137 147 121 234 210 177 183 175 182 166 154 154 152 147 166 199 240 240 114 129 127 129 123 116 114 109 102 94 93 97 98 95 82 47 44 89 48 43 24 12 348 334 326 324 317 313 308 302 299 299 300 301 299
210 218 216 223 230 182 98 127 139 134 122 141 180 219 222 149 174 167 178 163 159 151 146 153 175 229 257 330 109 133 133 126 116 123 118 109 100 96 94 87 89 95 104 124 79 40 33 22 359 352 339 330 326 315 311 308 302 299 300 302 302 300 296
217 231 227 236 158 87 104 116 120 118 121 167 204 231 80 149 154 161 164 160 151 147 154 173 199 116 53 73 108 123 128 127 116 102 93 91 98 102 98 92 94 89 60 31 6 6 20 360 349 344 338 327 317 314 308 303 299 302 304 302 299 295 294
218 214 247 233 325 49 106 104 113 125 164 193 221 72 175 139 141 145 163 152 147 158 166 182 106 106 111 116 129 135 142 135 120 119 112 107 94 89 87 78 52 39 18 14 352 350 355 346 345 338 329 319 313 310 305 300 302 304 302 299 297 296 294
164 196 242 245 235 118 165 128 108 329 248 81 123 115 85 127 138 142 136 146 148 162 159 160 113 132 128 150 147 145 140 137 137 130 119 108 103 94 79 73 57 21 11 352 351 350 340 343 338 329 321 312 309 306 301 304 306 304 305 302 300 297 295
227 210 210 228 39 168 173 175 154 196 354 37 148 133 113 115 135 140 137 138 154 163 163 161 146 135 134 137 142 141 141 133 125 114 109 104 98 91 72 51 37 21 1 351 341 337 331 331 326 319 317 309 307 305 303 309 309 307 303 300 300 299 297
283 1 42 86 176 215 187 180 18 181 173 345 354 79 135 150 133 145 156 140 154 169 159 155 148 152 156 154 159 155 146 143 138 126 110 93 88 75 56 47 38 14 357 340 326 322 324 322 322 318 312 308 305 303 306 309 307 304 303 302 302 300 300
155 208 72 127 127 173 183 174 33 28 118 3 323 161 165 126 136 163 156 150 151 151 157 159 166 173 163 162 159 147 143 136 110 102 107 104 102 103 87 70 27 358 341 325 321 319 319 321 319 316 311 307 305 306 311 310 305 305 306 304 302 302 300
188 215 171 198 142 142 186 166 105 79 357 352 342 68 71 117 148 152 110 136 148 148 153 171 170 168 171 148 125 117 116 120 121 126 113 99 81 57 51 49 9 352 339 328 324 323 319 322 319 313 310 308 307 310 305 304 304 305 305 304 302 301 302
220 249 145 142 113 141 174 186 163 169 162 148 53 54 52 52 57 95 120 133 144 153 172 178 184 177 169 156 150 155 145 133 134 126 112 99 89 71 54 31 6 337 331 327 323 323 319 318 317 312 312 310 311 311 309 307 308 309 307 304 303 303 304
155 97 130 128 134 150 186 184 206 140 152 152 132 95 73 78 106 102 95 113 140 168 164 173 178 165 158 156 156 143 116 130 121 107 99 81 74 50 25 2 348 339 331 326 322 320 317 317 315 315 313 310 311 310 309 313 319 314 307 304 303 303 303
219 207 150 164 171 155 171 197 197 189 166 152 142 131 138 140 141 136 123 106 95 106 127 147 157 153 133 115 129 119 117 114 106 106 95 84 60 45 16 344 345 336 335 329 323 320 317 319 318 314 314 313 313 313 315 315 316 310 308 306 304 302 302
1 43 133 80 61 91 56 199 189 186 145 152 144 164 175 162 155 153 141 127 117 118 121 128 136 122 130 126 130 133 123 109 99 86 83 74 46 28 4 351 350 341 333 326 323 321 321 319 312 313 316 315 316 316 315 314 312 309 309 307 306 305 303
102 26 26 14 50 110 125 87 64 100 121 155 147 167 172 143 147 163 157 140 132 125 121 117 118 130 133 136 135 114 109 113 109 107 95 88 39 17 7 356 347 335 332 332 327 324 321 318 317 319 318 319 320 316 319 319 317 312 310 308 305 304 303
18 18 0 7 6 17 31 37 45 71 102 232 215 136 115 131 163 171 147 136 141 141 142 131 121 126 127 118 114 115 112 103 97 99 98 72 52 15 2 353 346 341 334 330 327 326 324 323 323 321 319 320 323 325 323 321 316 311 309 308 304 301 301